Wind_Speed
18 18 18 17 18 18 17 17 17 17 16 15 15 15 15 15 15 15 15 16 16 17 17 17 16 16 16 16 16 17 17 17 17 17 17 17 18 18 18 18 19 19 19
20 19 19 19 19 18 18 18 18 18 17 17 16 16 16 15 15 16 17 17 17 18 18 18 17 17 17 17 17 17 17 17 18 17 18 18 18 19 20 20 20 20 20
22 21 20 19 19 19 19 19 19 19 18 18 17 17 16 16 16 17 18 18 18 18 18 18 18 18 18 19 18 18 18 19 19 19 19 19 19 20 20 21 21 21 21
22 22 21 20 20 20 21 21 20 20 20 19 19 19 18 18 18 19 19 19 19 19 19 20 20 20 20 20 20 20 20 20 21 21 21 21 21 21 21 21 21 21 21
24 23 23 22 21 21 22 22 22 21 21 21 20 21 20 19 20 20 20 20 21 21 21 21 22 21 21 21 21 21 21 21 22 22 22 23 23 23 23 23 22 22 22
25 24 24 23 23 22 23 23 23 23 22 22 22 22 21 21 21 21 21 22 22 24 24 23 24 24 23 22 22 22 23 23 24 24 24 24 24 24 24 24 24 23 23
26 25 25 24 24 24 24 24 24 23 23 23 23 23 22 22 22 23 23 23 24 24 24 24 24 25 24 24 24 24 25 25 25 26 25 25 25 24 24 24 25 25 25
26 25 25 25 25 24 24 24 24 24 23 24 23 23 23 23 23 24 25 25 24 24 24 24 25 25 25 25 26 26 27 27 27 27 26 26 26 26 26 26 26 26 26
26 26 25 24 24 23 23 23 23 22 23 24 24 24 24 24 25 26 26 25 25 24 24 24 25 26 26 26 26 26 27 28 28 28 27 27 27 27 27 27 27 27 26
27 26 26 26 25 25 24 24 24 24 24 25 25 25 25 26 27 27 27 26 25 26 26 25 25 26 26 26 26 27 27 27 27 27 27 27 27 28 28 28 27 27 27
27 27 28 28 27 26 26 26 26 26 26 27 26 26 26 27 28 28 27 27 27 27 27 27 26 26 27 27 27 27 28 28 27 27 28 28 28 28 28 28 28 28 28
28 28 27 27 27 27 27 27 27 27 27 28 28 27 27 28 29 29 28 26 27 28 28 28 27 27 26 27 27 28 28 29 28 28 28 28 28 28 29 29 29 29 30
28 28 27 27 28 28 28 29 29 29 29 29 29 28 28 29 28 28 28 27 28 29 29 28 28 28 28 28 28 29 29 29 29 28 28 28 29 29 29 30 30 31 31
29 29 28 28 29 29 29 30 30 30 30 30 30 30 30 30 30 29 29 29 28 28 29 29 29 29 29 29 29 29 29 29 29 29 29 29 29 30 30 30 30 31 31
29 29 29 29 29 29 30 30 31 30 30 30 30 31 30 30 31 31 31 30 29 29 29 29 28 29 30 30 30 29 29 29 29 29 30 30 30 30 30 30 31 31 31
29 29 29 29 29 30 30 31 30 31 31 31 31 31 31 31 31 30 30 30 30 30 30 29 29 28 28 29 29 29 29 30 30 29 29 30 30 30 30 31 30 30 30
30 29 29 30 30 31 31 31 31 31 31 31 31 31 31 30 31 30 30 30 30 29 29 28 27 28 28 28 28 28 28 29 29 29 29 29 30 30 30 30 30 30 30
30 31 31 31 32 32 32 32 32 32 32 32 32 32 32 31 31 31 30 29 29 28 28 27 27 28 27 27 27 28 28 28 28 28 28 28 29 30 30 30 30 29 29
31 31 32 32 33 33 33 33 33 33 33 33 33 32 32 32 31 30 30 29 28 28 28 27 27 27 27 27 27 27 28 28 28 28 27 28 28 29 29 29 28 28 28
31 31 31 32 32 32 33 33 33 33 33 33 33 32 31 30 30 29 29 28 27 27 27 26 27 27 27 26 26 27 27 27 27 27 27 28 28 28 28 28 28 28 28
31 31 31 31 32 33 33 33 33 33 33 32 32 31 30 29 29 29 28 27 27 27 27 27 27 26 26 26 26 27 27 27 27 28 28 28 28 28 28 28 28 28 28
30 30 30 31 32 32 33 33 33 32 32 31 31 30 29 29 28 28 28 27 27 26 27 27 26 26 27 27 27 27 28 29 28 28 28 28 29 29 28 28 28 28 28
29 30 30 31 31 31 31 30 30 30 30 30 29 28 28 27 27 27 26 26 26 27 27 28 28 28 28 28 28 28 28 29 28 28 29 29 29 29 29 29 29 29 29
27 27 27 27 27 28 28 29 29 29 29 28 27 26 26 25 25 25 25 26 26 26 26 27 28 28 28 28 28 29 29 29 30 30 30 30 30 30 31 30 30 30 29
26 26 25 25 25 26 26 27 28 28 28 28 28 26 26 26 26 26 26 26 25 26 26 26 27 28 28 28 29 30 30 30 31 31 32 32 31 31 31 31 30 30 29
24 24 24 24 25 25 26 27 27 27 27 28 27 26 26 26 26 26 26 26 26 26 26 26 26 27 27 28 29 30 30 30 30 31 31 31 31 31 31 31 30 29 29
Wind_Direction
273 277 280 282 284 288 290 292 291 291 293 297 295 290 287 285 281 280 279 280 281 282 283 282 282 283 284 285 286 288 291 292 290 289 287 285 283 281 281 280 279 278 278
270 273 276 280 283 285 287 289 289 289 291 292 294 289 285 286 282 281 282 282 283 282 282 282 280 281 282 284 286 289 290 290 289 289 287 284 283 283 281 278 278 279 279
269 271 273 276 279 282 284 285 285 286 288 289 289 290 286 285 285 284 282 282 283 283 283 282 280 280 282 283 285 287 289 288 289 289 289 286 285 284 280 278 277 279 279
269 269 271 272 275 279 280 282 283 283 283 283 285 286 287 287 287 287 282 280 281 281 282 282 280 279 280 282 284 286 288 289 288 288 288 286 284 284 281 278 277 279 280
268 269 269 270 273 275 277 280 281 280 278 280 281 283 285 286 288 288 284 279 278 279 281 281 281 279 280 281 283 285 286 288 288 288 288 286 284 283 281 278 275 278 278
265 268 269 270 270 272 275 277 278 278 278 279 280 281 283 285 287 289 287 283 280 280 280 280 280 278 278 281 282 283 285 287 286 288 288 284 283 283 282 280 277 277 278
264 267 267 270 269 271 273 275 277 277 278 279 280 282 283 285 288 289 287 285 284 282 280 280 281 279 279 279 280 282 284 285 285 286 286 284 283 282 282 281 279 277 276
260 264 266 269 269 269 271 274 276 277 279 280 280 282 283 286 289 289 287 285 284 284 281 280 281 282 278 278 279 281 284 285 285 284 283 281 281 281 281 281 280 278 278
265 268 271 271 270 272 272 273 276 279 281 282 282 283 284 288 289 290 288 287 286 287 285 283 282 282 281 279 280 282 284 285 285 283 282 280 280 280 281 281 280 281 281
267 268 271 272 273 274 274 276 277 279 280 282 282 284 286 289 291 291 287 286 285 286 286 284 284 284 283 281 282 283 284 284 284 282 281 280 280 281 281 281 281 281 282
266 267 268 270 271 273 275 276 277 279 280 281 283 286 289 290 290 290 288 285 286 287 285 284 284 285 284 283 284 284 285 286 284 282 282 282 281 281 281 281 281 282 282
265 267 267 268 270 271 272 274 276 278 279 280 282 286 287 288 287 287 286 285 284 285 284 283 284 285 285 286 285 285 285 285 284 282 281 282 282 281 281 282 282 283 283
264 265 267 269 270 271 271 274 275 277 279 281 282 284 286 287 287 287 286 286 283 282 282 282 281 282 283 284 284 284 284 284 283 282 282 282 282 282 283 283 283 283 284
265 266 266 269 271 272 272 274 275 276 279 282 283 284 286 287 288 289 288 286 284 283 282 282 282 282 282 283 283 283 283 283 283 282 282 282 282 283 284 285 284 284 284
265 266 267 268 269 271 273 275 277 278 281 282 282 283 285 287 288 288 287 286 285 285 283 283 283 283 283 283 283 282 283 284 284 284 282 282 283 284 284 285 284 284 284
266 266 267 268 270 271 273 274 276 278 281 283 284 284 284 287 287 286 286 287 286 284 284 282 282 282 283 283 281 282 284 284 284 284 282 282 284 284 284 284 285 284 283
265 267 268 268 269 270 272 274 275 277 280 282 283 284 285 287 288 287 286 286 286 284 283 282 281 281 281 281 282 284 284 284 284 283 283 284 283 283 285 286 285 285 285
266 267 268 269 270 271 272 273 275 277 279 280 281 283 285 287 287 286 286 286 285 284 282 281 281 281 281 281 283 285 285 286 286 285 284 284 284 285 286 286 286 287 286
267 267 268 269 271 271 272 274 275 276 278 279 280 282 284 284 283 283 283 284 284 283 282 281 281 282 282 283 284 284 284 285 286 287 287 287 287 287 287 288 287 288 288
267 267 268 269 271 271 273 274 275 276 277 279 280 282 282 282 282 282 282 283 282 282 282 281 281 282 282 283 285 284 283 283 286 287 287 287 288 288 288 288 287 288 288
269 269 270 270 272 273 273 274 274 274 276 278 280 281 280 281 281 281 281 281 281 281 281 281 281 280 281 283 284 284 284 284 284 286 289 289 289 290 289 288 288 288 287
269 270 271 272 273 273 273 273 272 273 275 278 280 280 280 280 280 281 281 281 280 280 281 281 280 280 281 283 284 284 284 284 286 286 288 289 290 290 288 287 286 286 285
270 271 272 273 272 271 273 273 273 273 274 276 278 278 278 279 278 279 280 279 280 281 281 281 279 279 280 281 282 282 283 284 286 286 287 289 289 289 287 286 286 285 283
273 273 274 273 271 271 272 272 274 274 274 275 276 275 276 276 275 276 278 278 278 278 279 280 281 281 280 281 283 283 283 285 286 286 286 288 288 288 287 285 283 284 283
274 274 275 275 274 274 275 274 274 273 272 272 274 274 274 274 273 274 276 278 277 278 281 280 280 281 282 283 285 284 284 285 285 286 287 287 287 286 286 285 284 284 283
274 274 275 276 277 276 274 274 273 273 273 273 274 273 271 271 272 273 275 276 277 278 279 279 281 282 282 284 286 285 284 284 284 286 286 286 286 285 284 284 283 283 283
Height
5842 5842 5842 5842 5842 5841 5841 5841 5841 5841 5840 5840 5839 5839 5839 5838 5838 5838 5838 5838 5838 5837 5837 5837 5837 5836 5836 5836 5835 5834 5834 5833 5833 5832 5830 5830 5829 5828 5828 5828 5828 5828 5828
5838 5838 5838 5838 5838 5838 5838 5838 5837 5837 5837 5836 5836 5835 5835 5834 5834 5834 5834 5834 5833 5833 5833 5832 5832 5832 5831 5831 5830 5830 5829 5828 5828 5827 5826 5825 5824 5823 5823 5823 5823 5823 5822
5833 5833 5833 5833 5834 5834 5834 5834 5834 5833 5833 5833 5832 5832 5831 5831 5830 5830 5829 5829 5828 5828 5828 5827 5827 5827 5826 5826 5825 5825 5824 5823 5822 5822 5821 5820 5819 5818 5818 5817 5817 5817 5817
5827 5828 5828 5829 5829 5829 5829 5829 5829 5829 5829 5828 5828 5827 5827 5826 5826 5825 5824 5824 5823 5823 5823 5822 5822 5821 5821 5821 5820 5819 5819 5818 5817 5816 5815 5814 5813 5812 5812 5812 5811 5811 5810
5821 5822 5822 5823 5823 5824 5824 5824 5824 5824 5824 5823 5823 5823 5822 5821 5821 5820 5819 5818 5818 5818 5817 5817 5816 5816 5815 5815 5814 5813 5813 5812 5811 5810 5809 5808 5807 5806 5806 5805 5805 5804 5804
5815 5816 5817 5817 5818 5818 5818 5819 5819 5818 5818 5818 5818 5817 5817 5816 5815 5814 5814 5813 5812 5812 5811 5810 5810 5809 5809 5808 5807 5807 5806 5805 5804 5804 5802 5801 5800 5800 5799 5798 5798 5798 5797
5809 5810 5810 5811 5812 5812 5812 5813 5813 5812 5812 5812 5812 5811 5811 5810 5810 5809 5808 5807 5806 5805 5804 5804 5803 5802 5802 5802 5801 5800 5799 5798 5797 5797 5796 5794 5793 5793 5792 5791 5791 5790 5790
5801 5803 5804 5805 5805 5806 5806 5806 5807 5807 5806 5806 5805 5805 5805 5804 5803 5803 5802 5800 5800 5799 5798 5797 5796 5796 5795 5794 5794 5793 5792 5791 5790 5789 5788 5787 5786 5785 5785 5784 5783 5783 5782
5796 5797 5798 5799 5799 5799 5800 5800 5800 5800 5800 5800 5799 5799 5798 5798 5797 5796 5795 5794 5793 5792 5791 5790 5789 5789 5788 5787 5786 5786 5785 5783 5782 5781 5780 5779 5778 5778 5777 5776 5776 5775 5774
5790 5791 5792 5793 5793 5793 5793 5794 5794 5794 5794 5793 5793 5792 5792 5791 5790 5789 5788 5787 5786 5785 5784 5783 5782 5781 5780 5779 5779 5778 5777 5776 5774 5773 5772 5772 5771 5770 5769 5768 5768 5767 5766
5783 5784 5785 5786 5786 5787 5787 5787 5787 5787 5787 5787 5786 5785 5785 5784 5783 5782 5780 5780 5779 5778 5777 5776 5775 5774 5773 5772 5771 5770 5769 5768 5766 5765 5764 5764 5763 5762 5761 5760 5759 5758 5758
5776 5777 5778 5779 5779 5780 5780 5780 5780 5780 5780 5779 5779 5778 5778 5777 5776 5774 5773 5772 5771 5770 5769 5768 5767 5767 5766 5765 5763 5762 5761 5760 5759 5758 5757 5756 5755 5754 5753 5752 5751 5750 5749
5769 5770 5771 5771 5772 5772 5773 5773 5773 5773 5772 5772 5771 5771 5770 5769 5767 5766 5766 5765 5763 5762 5761 5761 5760 5759 5758 5756 5755 5754 5753 5752 5750 5749 5749 5748 5747 5746 5745 5744 5742 5741 5740
5762 5763 5763 5764 5764 5765 5765 5765 5765 5765 5765 5764 5764 5763 5762 5761 5759 5758 5757 5756 5755 5754 5753 5752 5751 5750 5749 5748 5747 5745 5744 5743 5742 5741 5740 5739 5738 5737 5736 5735 5733 5732 5731
5754 5754 5755 5756 5756 5757 5757 5757 5757 5757 5757 5756 5756 5755 5754 5753 5751 5750 5748 5747 5746 5745 5744 5743 5743 5742 5741 5739 5738 5737 5735 5734 5734 5732 5731 5730 5729 5728 5726 5725 5724 5722 5721
5745 5746 5747 5748 5748 5749 5749 5749 5749 5749 5748 5748 5747 5746 5745 5744 5742 5741 5740 5738 5737 5736 5735 5734 5734 5733 5732 5731 5729 5728 5726 5725 5724 5723 5722 5721 5720 5718 5717 5715 5714 5712 5711
5737 5738 5739 5739 5740 5740 5741 5741 5741 5741 5740 5740 5739 5738 5737 5735 5734 5732 5731 5729 5728 5727 5726 5725 5725 5724 5723 5722 5721 5719 5718 5716 5715 5714 5713 5712 5711 5709 5707 5706 5705 5703 5702
5728 5729 5730 5730 5731 5731 5732 5732 5731 5731 5731 5731 5730 5729 5728 5726 5725 5723 5722 5721 5719 5718 5718 5717 5716 5716 5714 5713 5712 5711 5709 5708 5706 5705 5704 5703 5702 5701 5699 5697 5696 5694 5693
5719 5720 5721 5721 5722 5722 5722 5722 5722 5722 5722 5721 5721 5720 5719 5717 5716 5714 5713 5712 5711 5710 5709 5709 5708 5707 5706 5705 5704 5702 5701 5700 5698 5697 5696 5695 5693 5692 5690 5688 5687 5685 5684
5710 5711 5711 5712 5712 5712 5712 5712 5712 5712 5712 5712 5711 5710 5709 5708 5707 5706 5705 5704 5703 5702 5701 5700 5700 5699 5698 5697 5696 5694 5693 5692 5691 5689 5688 5686 5685 5683 5681 5680 5678 5677 5675
5701 5702 5702 5703 5703 5703 5703 5703 5703 5703 5703 5702 5702 5700 5699 5699 5698 5697 5696 5695 5694 5693 5693 5692 5691 5690 5689 5688 5687 5686 5685 5684 5682 5681 5679 5678 5676 5675 5673 5671 5670 5668 5667
5693 5693 5694 5694 5694 5693 5693 5693 5693 5693 5693 5693 5692 5691 5690 5690 5689 5688 5687 5687 5686 5685 5684 5684 5683 5682 5681 5680 5679 5678 5677 5676 5674 5673 5671 5669 5668 5666 5664 5662 5661 5660 5658
5685 5685 5685 5685 5685 5684 5685 5684 5684 5684 5684 5683 5683 5682 5681 5681 5680 5680 5679 5678 5677 5677 5676 5675 5674 5674 5673 5672 5671 5669 5668 5667 5665 5663 5662 5660 5659 5657 5655 5654 5652 5650 5649
5677 5677 5676 5676 5676 5676 5676 5675 5675 5675 5675 5675 5674 5674 5673 5673 5673 5672 5671 5671 5670 5669 5668 5667 5666 5665 5664 5663 5662 5661 5659 5658 5656 5655 5653 5651 5649 5648 5646 5644 5642 5641 5639
5669 5669 5668 5668 5668 5668 5667 5667 5666 5666 5666 5666 5666 5666 5665 5665 5665 5664 5664 5663 5662 5661 5660 5658 5657 5656 5655 5654 5653 5651 5650 5648 5646 5645 5643 5641 5640 5638 5636 5634 5633 5631 5630
5661 5661 5661 5660 5660 5659 5659 5658 5658 5658 5657 5657 5657 5657 5657 5656 5656 5656 5655 5655 5654 5653 5652 5651 5649 5648 5647 5645 5643 5642 5640 5638 5636 5634 5632 5631 5629 5628 5626 5625 5623 5622 5620